Location: Ostrava
(49.8330°N, 18.2830°E)
Time: 00:04:12
(UTC+02:00)

NOAA 19 - Visible Passes

Search period start: 29 May 2016 00:00
Search period end: 08 June 2016 00:00
Orbit: 843 x 861 km, 99.0° (Epoch: 28 May)

Date Brightness Start Highest point End Pass type
(mag) Time Alt. Az. Time Alt. Az. Time Alt. Az.
29 May 6.5 03:11:04 10° NNE 03:16:12 37° E 03:21:18 10° SSE visible
30 May 6.8 02:59:51 10° NNE 03:04:44 30° E 03:09:34 10° SSE visible
31 May 7.1 02:48:42 10° NE 02:53:14 25° E 02:57:43 10° SSE visible
01 Jun 7.3 02:37:39 10° NE 02:41:43 20° E 02:45:46 10° SE visible
02 Jun 7.5 02:26:43 10° NE 02:30:11 17° E 02:33:37 10° SE visible
03 Jun 7.6 02:16:01 10° ENE 02:18:38 13° E 02:21:13 10° ESE visible
03 Jun 5.4 03:54:39 10° NNE 04:00:14 78° ESE 04:05:47 10° SSW visible
04 Jun 7.9 02:06:06 10° ENE 02:07:03 10° E 02:08:00 10° E visible
04 Jun 5.7 03:43:18 10° NNE 03:48:51 64° ESE 03:54:20 10° S visible
05 Jun 5.9 03:31:59 10° NNE 03:37:26 53° E 03:42:49 10° S visible
06 Jun 6.3 03:20:42 10° NNE 03:25:59 43° E 03:31:13 10° S visible
07 Jun 6.6 03:09:27 10° NNE 03:14:32 35° E 03:19:33 10° SSE visible
